FW8243 Weather Reports


Display with metric or nautical units.
time (UTC)temp
F
wind
direction
speed
MPH
gust
MPH
rain 1hr
in
rain 24hr
in
rain mn
in
humidity
%
barometer
mb
20260906204556 94 109 12.0 21.0 0.00 0.00 0.00 37 1011.7
20260906204049 94 135 11.0 18.0 0.00 0.00 0.00 37 1011.7
20260906203548 94 117 12.0 18.0 0.00 0.00 0.00 38 1011.8
20260906203059 93 133 12.0 24.0 0.00 0.00 0.00 37 1011.9
20260906202547 93 135 10.0 24.0 0.00 0.00 0.00 38 1011.8
20260906202047 93 112 12.0 23.0 0.00 0.00 0.00 38 1012.0
20260906201602 93 130 16.0 23.0 0.00 0.00 0.00 37 1012.1
20260906201047 93 145 15.0 26.0 0.00 0.00 0.00 36 1012.1
20260906200547 93 128 11.0 26.0 0.00 0.00 0.00 37 1012.1
20260906200057 93 108 17.0 26.0 0.00 0.00 0.00 36 1012.2
20260906195546 93 99 13.0 25.0 0.00 0.00 0.00 37 1012.0
20260906195047 93 132 12.0 25.0 0.00 0.00 0.00 37 1012.2
20260906194556 93 132 16.0 25.0 0.00 0.00 0.00 37 1012.3
20260906194054 92 98 13.0 26.0 0.00 0.00 0.00 39 1012.4
20260906193547 92 154 15.0 26.0 0.00 0.00 0.00 38 1012.4
20260906193104 92 117 15.0 23.0 0.00 0.00 0.00 38 1012.5
20260906192553 92 116 15.0 23.0 0.00 0.00 0.00 38 1012.4
20260906192048 92 141 14.0 19.0 0.00 0.00 0.00 38 1012.6
20260906191611 91 140 12.0 20.0 0.00 0.00 0.00 37 1012.7
20260906191051 92 123 13.0 21.0 0.00 0.00 0.00 38 1012.8
20260906190852 92 116 14.0 21.0 0.00 0.00 0.00 37 1012.9
20260906185547 92 109 12.0 20.0 0.00 0.08 0.00 36 1013.0
20260906185048 92 112 12.0 20.0 0.00 0.08 0.00 36 1013.0
20260906184604 91 117 10.0 23.0 0.00 0.08 0.00 37 1013.0
20260906184048 91 90 12.0 23.0 0.00 0.08 0.00 38 1013.1
20260906183548 91 115 10.0 17.0 0.00 0.08 0.00 38 1013.2
20260906183104 91 103 10.0 16.0 0.00 0.08 0.00 38 1013.3
20260906182550 90 137 11.0 21.0 0.00 0.08 0.00 39 1013.4
20260906182049 90 158 7.0 22.0 0.00 0.08 0.00 40 1013.4
20260906181603 90 154 11.0 22.0 0.00 0.08 0.00 40 1013.6
20260906181047 89 163 10.0 21.0 0.00 0.08 0.00 40 1013.7
20260906180547 89 147 12.0 20.0 0.00 0.08 0.00 39 1013.9
20260906180113 89 121 11.0 16.0 0.00 0.08 0.00 40 1014.1
20260906175552 89 138 11.0 18.0 0.00 0.08 0.00 40 1014.1
20260906175047 88 119 10.0 18.0 0.00 0.08 0.00 41 1014.1
20260906174556 88 179 12.0 18.0 0.00 0.08 0.00 40 1014.1
20260906174048 88 135 10.0 18.0 0.00 0.08 0.00 39 1014.3
20260906173551 88 159 9.0 20.0 0.00 0.08 0.00 40 1014.3
20260906173055 88 182 10.0 20.0 0.00 0.08 0.00 40 1014.4
20260906172553 88 173 12.0 19.0 0.00 0.08 0.00 40 1014.6
20260906172047 87 126 12.0 19.0 0.00 0.08 0.00 41 1014.7
20260906171605 87 163 12.0 19.0 0.00 0.08 0.00 40 1014.7
20260906171047 87 137 12.0 19.0 0.00 0.08 0.00 41 1014.8
20260906170547 87 159 10.0 20.0 0.00 0.08 0.00 41 1014.9
20260906170058 87 126 11.0 20.0 0.00 0.08 0.00 41 1014.8
20260906165545 87 155 10.0 20.0 0.00 0.08 0.00 42 1014.8
20260906165048 86 138 10.0 15.0 0.00 0.08 0.00 42 1014.8
20260906164559 86 188 8.0 15.0 0.00 0.08 0.00 44 1014.8
20260906164046 86 228 10.0 18.0 0.00 0.08 0.00 43 1014.9
20260906163545 86 186 11.0 18.0 0.00 0.08 0.00 43 1014.9
20260906163114 86 145 11.0 20.0 0.00 0.08 0.00 43 1015.0
20260906162546 85 163 12.0 20.0 0.00 0.08 0.00 43 1015.1
20260906162045 85 148 10.0 17.0 0.00 0.08 0.00 44 1015.2
20260906161605 85 172 8.0 15.0 0.00 0.08 0.00 44 1015.2
20260906161048 84 187 10.0 15.0 0.00 0.08 0.00 45 1015.2
20260906160545 84 169 7.0 16.0 0.00 0.08 0.00 45 1015.2
20260906160059 84 197 8.0 16.0 0.00 0.08 0.00 46 1015.2
20260906155548 84 136 6.0 15.0 0.00 0.08 0.00 45 1015.0
20260906155045 83 194 9.0 15.0 0.00 0.08 0.00 45 1015.1
20260906154558 83 155 7.0 15.0 0.00 0.08 0.00 46 1015.1
20260906154046 82 157 7.0 12.0 0.00 0.08 0.00 48 1015.1
20260906153548 82 180 7.0 12.0 0.00 0.08 0.00 49 1015.1
20260906153118 81 166 6.0 12.0 0.00 0.08 0.00 53 1015.2
20260906152545 81 211 4.0 9.0 0.00 0.08 0.00 58 1015.2
20260906152045 80 165 4.0 8.0 0.00 0.08 0.00 58 1015.2
20260906151557 79 194 3.0 8.0 0.00 0.08 0.00 59 1015.3
20260906151045 79 203 4.0 8.0 0.00 0.08 0.00 62 1015.3
20260906150545 78 186 4.0 8.0 0.00 0.08 0.00 63 1015.4
20260906150100 77 184 4.0 8.0 0.00 0.08 0.00 65 1015.5
20260906145545 77 220 4.0 8.0 0.00 0.08 0.00 66 1015.5
20260906145049 76 208 4.0 9.0 0.00 0.08 0.00 67 1015.4
20260906144559 76 209 5.0 9.0 0.00 0.08 0.00 67 1015.5
20260906144048 75 173 4.0 7.0 0.00 0.08 0.00 69 1015.4
20260906143546 74 202 4.0 7.0 0.00 0.08 0.00 70 1015.6
20260906143058 74 192 4.0 7.0 0.00 0.08 0.00 71 1015.5
20260906142545 73 171 4.0 7.0 0.00 0.08 0.00 73 1015.5
20260906142046 72 150 3.0 6.0 0.00 0.08 0.00 77 1015.4
20260906141555 71 159 3.0 6.0 0.00 0.08 0.00 78 1015.3
20260906141045 70 178 3.0 5.0 0.00 0.08 0.00 80 1015.3
20260906140545 69 192 1.0 3.0 0.00 0.08 0.00 83 1015.2
20260906140107 68 215 1.0 3.0 0.00 0.08 0.00 85 1015.3
20260906135546 67 174 0.0 1.0 0.00 0.08 0.00 87 1015.3
20260906135045 66 0 0.0 1.0 0.00 0.08 0.00 87 1015.3
20260906134557 65 0 0.0 3.0 0.00 0.08 0.00 88 1015.3
20260906134046 65 308 0.0 3.0 0.00 0.08 0.00 89 1015.3
20260906133545 64 319 1.0 3.0 0.00 0.08 0.00 90 1015.3
20260906133121 64 291 1.0 3.0 0.00 0.08 0.00 90 1015.3
20260906132546 64 0 0.0 2.0 0.00 0.08 0.00 90 1015.3
20260906132046 63 0 0.0 2.0 0.00 0.08 0.00 91 1015.3
20260906131616 63 0 0.0 1.0 0.00 0.08 0.00 92 1015.4
20260906131045 62 0 0.0 1.0 0.00 0.08 0.00 92 1015.3
20260906130545 62 207 0.0 1.0 0.00 0.08 0.00 92 1015.3
20260906130109 61 0 0.0 0.0 0.00 0.08 0.00 92 1015.2
20260906125548 61 0 0.0 3.0 0.00 0.08 0.00 93 1015.2
20260906125051 60 0 0.0 4.0 0.00 0.08 0.00 92 1015.2
20260906124601 60 275 2.0 4.0 0.00 0.08 0.00 91 1015.0
20260906124048 59 245 1.0 4.0 0.00 0.08 0.00 90 1015.0
20260906123546 60 254 1.0 4.0 0.00 0.08 0.00 89 1014.8
20260906123057 61 252 1.0 4.0 0.00 0.08 0.00 90 1014.9
20260906122545 61 287 2.0 4.0 0.00 0.08 0.00 92 1014.8
20260906122045 60 286 2.0 4.0 0.00 0.08 0.00 90 1014.9
20260906121556 61 275 2.0 4.0 0.00 0.08 0.00 91 1014.8
20260906121045 61 265 1.0 4.0 0.00 0.08 0.00 91 1014.8
20260906120545 61 0 1.0 4.0 0.00 0.08 0.00 91 1014.8
20260906120105 60 250 2.0 4.0 0.00 0.08 0.00 91 1014.7
20260906115545 61 266 1.0 4.0 0.00 0.08 0.00 92 1014.8
20260906115049 60 266 1.0 4.0 0.00 0.08 0.00 92 1014.8
20260906114601 60 275 2.0 4.0 0.00 0.08 0.00 91 1014.7
20260906114047 60 275 2.0 4.0 0.00 0.08 0.00 91 1014.6
20260906113548 60 254 0.0 4.0 0.00 0.08 0.00 91 1014.7
20260906113102 60 0 0.0 4.0 0.00 0.08 0.00 92 1014.6
20260906112546 60 295 2.0 4.0 0.00 0.08 0.00 90 1014.7
20260906112045 60 264 3.0 4.0 0.00 0.08 0.00 90 1014.7
20260906111559 61 284 1.0 4.0 0.00 0.08 0.00 90 1014.8
20260906111045 61 279 1.0 3.0 0.00 0.08 0.00 90 1014.7
20260906110545 61 0 0.0 3.0 0.00 0.08 0.00 90 1014.6
20260906110100 61 277 1.0 3.0 0.00 0.08 0.00 89 1014.7
20260906105547 61 273 0.0 3.0 0.00 0.08 0.00 89 1014.6
20260906105046 61 0 0.0 3.0 0.00 0.08 0.00 89 1014.6
20260906104557 61 267 1.0 3.0 0.00 0.08 0.00 89 1014.5
20260906104047 62 273 0.0 3.0 0.00 0.08 0.00 89 1014.4
20260906103547 62 0 0.0 3.0 0.00 0.08 0.00 89 1014.5
20260906103059 62 269 2.0 3.0 0.00 0.08 0.00 88 1014.5
20260906102551 62 269 1.0 3.0 0.00 0.08 0.00 88 1014.4
20260906102047 62 270 1.0 7.0 0.00 0.08 0.00 88 1014.4
20260906101559 62 281 1.0 7.0 0.00 0.08 0.00 88 1014.3
20260906101047 63 284 4.0 7.0 0.00 0.08 0.00 87 1014.2
20260906100549 64 259 3.0 6.0 0.00 0.08 0.00 86 1014.2
20260906100111 64 288 3.0 6.0 0.00 0.08 0.00 88 1014.2
20260906095549 63 297 2.0 6.0 0.00 0.08 0.00 87 1014.2
20260906095047 64 287 2.0 6.0 0.00 0.08 0.00 86 1014.2
20260906094614 64 0 1.0 4.0 0.00 0.08 0.00 86 1014.2
20260906094047 65 275 1.0 7.0 0.00 0.08 0.00 84 1014.2
20260906093547 65 0 1.0 7.0 0.00 0.08 0.00 84 1014.2
20260906093105 66 288 4.0 6.0 0.00 0.08 0.00 84 1014.2
20260906092547 66 287 0.0 3.0 0.00 0.08 0.00 84 1014.0
20260906092047 66 0 0.0 0.0 0.00 0.08 0.00 82 1014.3
20260906091601 67 0 0.0 0.0 0.00 0.08 0.00 84 1014.3
20260906091050 67 0 0.0 0.0 0.00 0.08 0.00 84 1014.2
20260906090547 67 0 0.0 0.0 0.00 0.08 0.00 84 1014.2
20260906090122 67 0 0.0 0.0 0.00 0.08 0.00 83 1014.3
20260906085548 67 0 0.0 0.0 0.00 0.08 0.00 83 1014.3
20260906085049 67 0 0.0 0.0 0.00 0.08 0.00 83 1014.3
20260906084606 67 0 0.0 0.0 0.00 0.08 0.00 83 1014.2
20260906084047 67 0 0.0 0.0 0.00 0.08 0.00 83 1014.2
20260906083547 67 0 0.0 2.0 0.00 0.08 0.00 83 1014.1
20260906083102 67 0 0.0 2.0 0.00 0.08 0.00 83 1014.2
20260906082547 67 0 1.0 2.0 0.00 0.08 0.00 83 1014.2
20260906082049 68 251 0.0 3.0 0.00 0.08 0.00 83 1014.1
20260906081603 68 251 1.0 3.0 0.00 0.08 0.00 83 1014.1
20260906081046 68 251 2.0 3.0 0.00 0.08 0.00 83 1014.1
20260906080546 68 0 0.0 0.0 0.00 0.08 0.00 84 1014.0
20260906080103 68 0 0.0 0.0 0.00 0.08 0.00 84 1014.0
20260906075545 68 0 0.0 0.0 0.00 0.08 0.00 84 1013.9
20260906075047 68 0 0.0 2.0 0.00 0.08 0.00 84 1013.8
20260906074602 68 0 0.0 2.0 0.00 0.08 0.00 84 1013.9
20260906074049 67 0 0.0 3.0 0.00 0.08 0.00 84 1013.8
20260906073545 67 0 1.0 3.0 0.00 0.08 0.00 82 1013.8
20260906073057 68 260 0.0 3.0 0.00 0.08 0.00 81 1013.9
20260906072548 68 260 1.0 3.0 0.00 0.08 0.00 79 1013.9
20260906072048 69 272 1.0 3.0 0.00 0.08 0.00 78 1013.8
20260906071557 70 0 1.0 4.0 0.00 0.08 0.00 79 1013.8
20260906071048 70 265 1.0 4.0 0.00 0.08 0.00 78 1013.8
20260906070548 70 281 2.0 6.0 0.00 0.08 0.00 78 1013.7
20260906070104 70 294 1.0 6.0 0.00 0.08 0.00 79 1013.8
20260906065545 70 288 2.0 7.0 0.00 0.08 0.00 77 1013.8
20260906065045 71 0 3.0 7.0 0.00 0.08 0.00 78 1013.8
20260906064602 70 306 4.0 7.0 0.00 0.08 0.00 78 1013.7
20260906064045 70 270 3.0 4.0 0.00 0.08 0.00 78 1013.7
20260906063548 70 274 1.0 3.0 0.00 0.08 0.00 79 1013.7
20260906063058 70 0 0.0 2.0 0.00 0.08 0.00 79 1013.7
20260906062547 70 0 0.0 3.0 0.00 0.08 0.00 79 1013.8
20260906062048 70 0 0.0 3.0 0.00 0.08 0.00 77 1013.8
20260906061559 71 261 0.0 3.0 0.00 0.08 0.00 76 1013.8
20260906061049 72 0 0.0 4.0 0.00 0.08 0.00 75 1013.6
20260906060548 72 0 1.0 4.0 0.00 0.08 0.00 75 1013.7
20260906060106 72 287 1.0 4.0 0.00 0.08 0.00 76 1013.6
20260906055550 71 0 1.0 3.0 0.00 0.08 0.08 76 1013.6
20260906055046 72 0 1.0 4.0 0.00 0.08 0.08 75 1013.8
20260906054559 73 0 0.0 7.0 0.00 0.08 0.08 75 1013.7
20260906054048 72 317 3.0 9.0 0.00 0.08 0.08 77 1013.7
20260906053548 71 287 5.0 9.0 0.00 0.08 0.08 77 1013.6
20260906053057 71 282 2.0 5.0 0.00 0.08 0.08 78 1013.8
20260906052548 71 300 0.0 2.0 0.00 0.08 0.08 79 1013.8
20260906052045 71 302 0.0 2.0 0.00 0.08 0.08 79 1013.9
20260906051603 71 248 0.0 0.0 0.00 0.08 0.08 79 1014.0
20260906051046 71 0 0.0 3.0 0.00 0.08 0.08 78 1014.0
20260906050545 71 0 0.0 3.0 0.00 0.08 0.08 78 1013.9
20260906050101 71 208 1.0 3.0 0.00 0.08 0.08 78 1013.9
20260906045546 70 0 0.0 3.0 0.00 0.08 0.08 78 1013.6
20260906045045 71 253 1.0 3.0 0.00 0.08 0.08 78 1013.6
20260906044603 72 263 1.0 3.0 0.00 0.08 0.08 76 1013.4
20260906044044 72 0 0.0 0.0 0.00 0.08 0.08 75 1013.5
20260906043547 72 0 0.0 3.0 0.00 0.08 0.08 75 1013.6
20260906043056 72 0 1.0 3.0 0.00 0.08 0.08 75 1013.7
20260906042548 73 254 2.0 3.0 0.00 0.08 0.08 73 1013.6
20260906042048 74 264 1.0 4.0 0.00 0.08 0.08 70 1013.6
20260906041604 75 0 1.0 4.0 0.00 0.08 0.08 69 1013.6
20260906041050 75 287 2.0 4.0 0.00 0.08 0.08 69 1013.6
20260906040547 75 286 2.0 7.0 0.00 0.08 0.08 69 1013.6
20260906040104 76 248 2.0 7.0 0.00 0.08 0.08 66 1013.8
20260906035545 76 301 3.0 7.0 0.00 0.08 0.08 66 1013.8
20260906035058 76 300 3.0 4.0 0.00 0.08 0.08 67 1013.8
20260906034557 76 282 2.0 4.0 0.00 0.08 0.08 68 1013.8
20260906034046 75 273 2.0 4.0 0.00 0.08 0.08 67 1013.7
20260906033551 76 275 0.0 3.0 0.00 0.08 0.08 68 1013.7
20260906033101 76 265 1.0 4.0 0.00 0.08 0.08 66 1013.7
20260906032547 76 269 1.0 4.0 0.00 0.08 0.08 66 1013.6
20260906032048 76 298 1.0 4.0 0.00 0.08 0.08 66 1013.5
20260906031602 77 282 2.0 4.0 0.00 0.08 0.08 65 1013.5
20260906031047 79 250 2.0 3.0 0.00 0.08 0.08 63 1013.5
20260906030548 80 250 2.0 6.0 0.00 0.08 0.08 61 1013.4
20260906030055 81 203 2.0 6.0 0.00 0.08 0.08 59 1013.4
20260906025547 82 179 3.0 7.0 0.00 0.08 0.08 59 1013.5
20260906025045 82 194 3.0 7.0 0.00 0.08 0.08 58 1013.4
20260906024556 82 143 3.0 6.0 0.00 0.08 0.08 58 1013.4
20260906024048 82 173 3.0 6.0 0.00 0.08 0.08 57 1013.3
20260906023548 82 182 2.0 5.0 0.00 0.08 0.08 57 1013.2
20260906023103 83 194 2.0 9.0 0.00 0.08 0.08 56 1013.0
20260906022550 83 190 3.0 9.0 0.00 0.08 0.08 56 1013.0
20260906022048 83 165 6.0 10.0 0.00 0.08 0.08 56 1012.8
20260906021603 81 180 6.0 10.0 0.00 0.08 0.08 58 1012.7
20260906021050 79 202 3.0 7.0 0.00 0.08 0.08 60 1012.6
20260906020547 79 246 3.0 6.0 0.00 0.08 0.08 58 1012.3
20260906015548 81 284 3.0 5.0 0.00 0.08 0.08 55 1012.1
20260906015048 81 271 0.0 3.0 0.00 0.08 0.08 52 1012.0
20260906014611 82 0 0.0 5.0 0.00 0.08 0.08 53 1011.9
20260906014047 82 0 1.0 5.0 0.00 0.08 0.08 52 1011.8
20260906013550 81 242 2.0 6.0 0.00 0.08 0.08 53 1011.8
20260906013057 81 247 3.0 6.0 0.00 0.08 0.08 55 1012.0
20260906012547 81 256 2.0 6.0 0.00 0.08 0.08 56 1011.8
20260906012048 81 234 1.0 5.0 0.00 0.08 0.08 59 1011.7
20260906011618 81 336 2.0 4.0 0.00 0.08 0.08 59 1011.7
20260906011048 81 292 2.0 4.0 0.00 0.08 0.08 60 1011.7
20260906010548 82 249 0.0 2.0 0.00 0.08 0.08 60 1011.8
20260906010105 82 0 0.0 2.0 0.00 0.08 0.08 61 1011.8
20260906005548 83 0 0.0 2.0 0.00 0.08 0.08 59 1011.8
20260906005048 83 325 0.0 7.0 0.00 0.08 0.08 58 1012.0
20260906004619 83 0 2.0 7.0 0.00 0.08 0.08 54 1012.2
20260906004047 84 321 4.0 7.0 0.00 0.08 0.08 53 1012.4
20260906003547 84 319 3.0 5.0 0.00 0.08 0.08 52 1012.4
20260906003105 84 304 3.0 7.0 0.00 0.08 0.08 52 1012.7
20260906002548 84 304 3.0 7.0 0.00 0.08 0.08 54 1012.9
20260906002051 83 302 2.0 6.0 0.00 0.08 0.08 54 1012.9
20260906001602 83 282 3.0 6.0 0.00 0.08 0.08 54 1012.9
20260906001050 84 284 3.0 6.0 0.00 0.08 0.08 54 1012.7
20260906000548 84 282 2.0 4.0 0.00 0.08 0.08 52 1012.4
20260906000101 84 281 2.0 4.0 0.00 0.08 0.08 55 1012.3
20260905235549 84 257 0.0 4.0 0.00 0.08 0.08 53 1012.2
20260905235048 85 17 3.0 4.0 0.00 0.08 0.08 53 1012.1
20260905234558 85 26 1.0 5.0 0.00 0.08 0.08 55 1012.0
20260905234047 86 5 2.0 6.0 0.00 0.08 0.08 54 1011.9
20260905233545 86 58 2.0 6.0 0.00 0.08 0.08 51 1012.0
20260905233111 86 104 3.0 7.0 0.00 0.08 0.08 51 1011.9
20260905232547 87 100 3.0 7.0 0.00 0.08 0.08 50 1011.8
20260905232047 87 91 4.0 7.0 0.00 0.08 0.08 49 1011.9
20260905231559 87 84 3.0 7.0 0.00 0.08 0.08 49 1011.9
20260905231049 87 98 3.0 9.0 0.00 0.08 0.08 50 1012.0
20260905230550 87 38 4.0 9.0 0.00 0.08 0.08 50 1012.2
20260905230057 86 350 5.0 10.0 0.00 0.08 0.08 51 1012.5
20260905225549 85 338 5.0 10.0 0.00 0.08 0.08 51 1012.4
20260905225044 85 327 7.0 10.0 0.00 0.08 0.08 53 1012.6
20260905224623 85 317 5.0 9.0 0.00 0.08 0.08 52 1012.7
20260905224047 85 317 6.0 9.0 0.00 0.08 0.08 51 1012.7
20260905223548 85 270 4.0 9.0 0.00 0.08 0.08 54 1012.6
20260905223107 86 267 4.0 7.0 0.00 0.08 0.08 54 1012.4
20260905222548 86 285 4.0 7.0 0.00 0.08 0.08 52 1012.2
20260905222050 86 279 3.0 6.0 0.00 0.08 0.08 51 1012.1
20260905221559 86 290 2.0 4.0 0.00 0.08 0.08 52 1012.0
20260905221049 86 283 1.0 3.0 0.00 0.08 0.08 54 1012.0
20260905220547 86 335 0.0 2.0 0.00 0.08 0.08 55 1012.2
20260905220104 86 0 0.0 2.0 0.00 0.08 0.08 54 1012.2
20260905215551 86 335 0.0 2.0 0.00 0.08 0.08 51 1012.3
20260905215049 86 285 0.0 4.0 0.00 0.08 0.08 54 1012.2
20260905214602 86 282 1.0 9.0 0.00 0.08 0.08 52 1012.1
20260905214047 86 256 0.0 9.0 0.00 0.08 0.08 53 1012.1
20260905213548 86 97 4.0 9.0 0.00 0.08 0.08 56 1012.1
20260905213102 85 63 4.0 7.0 0.00 0.08 0.08 57 1012.1
20260905212550 84 88 2.0 4.0 0.00 0.08 0.08 58 1012.3
20260905212048 84 0 1.0 8.0 0.00 0.08 0.08 59 1012.3
20260905211557 84 0 2.0 8.0 0.00 0.08 0.08 60 1012.4
20260905211048 84 137 4.0 8.0 0.00 0.08 0.08 61 1012.6
20260905210547 84 104 3.0 8.0 0.00 0.08 0.08 62 1012.4
20260905210105 84 76 3.0 8.0 0.00 0.08 0.08 63 1012.4
20260905205547 85 88 3.0 7.0 0.00 0.08 0.08 61 1012.5
20260905205048 85 90 2.0 5.0 0.00 0.08 0.08 60 1012.7